Hourly Data Report for October 21, 2013

All times are specified in Local Standard Time (LST). Add 1 hour to adjust for Daylight Saving Time where and when it is observed.

GRISE FIORD CLIMATE
NUNAVUT

76°25'22.040" N
82°54'08.020" W
44.50 m
2402351
71971
NGC

Download Data

Hourly Data (October 2013)
Hourly Data Report for October 21, 2013
Temp Definition
°C
Dew Point Temp Definition
°C
Rel Hum Definition
%
Wind Dir Definition
10's deg

Wind Spd Definition
km/h
Visibility Definition
km
Stn Press Definition
kPa
Hmdx Definition


Wind Chill Definition


Weather Definition


TIME
00:00 -7.3 -7.5 98 23 4   101.67   -9 LegendNANA
01:00 -9.2 -9.5 98 4 6   101.67   -13 LegendNANA
02:00 -8.5 -9.1 95 5 6   101.66   -12 LegendNANA
03:00 -8.8 -9.1 98 13 2   101.70   -10 LegendNANA
04:00 -9.7 -10.3 95 3 2   101.69   -11 LegendNANA
05:00 -7.8 -8.2 97 4 6   101.69   -11 LegendNANA
06:00 -7.9 -8.3 97 13 4   101.70   -10 LegendNANA
07:00 -8.2 -8.6 97 6 2   101.70   -9 LegendNANA
08:00 -9.1 -9.6 96 4 2   101.71   -10 LegendNANA
09:00 -7.9 -8.3 97   0   101.71     LegendNANA
10:00 -7.9 -8.2 98   0   101.68     LegendNANA
11:00 -8.8 -9.2 97   0   101.70     LegendNANA
12:00 -7.6 -7.9 98 7 2   101.70   -9 LegendNANA
13:00 -7.6 -7.9 98 3 2   101.70   -9 LegendNANA
14:00 -7.9 -8.3 97 11 2   101.74   -9 LegendNANA
15:00 -7.9 -8.3 97 16 2   101.74   -9 LegendNANA
16:00 -8.9 -9.3 97   0   101.73     LegendNANA
17:00 -8.6 -9.0 97 25 2   101.74   -10 LegendNANA
18:00 -8.6 -9.0 97 4 4   101.76   -11 LegendNANA
19:00 -7.6 -8.0 97 8 2   101.75   -9 LegendNANA
20:00 -7.1 -7.4 98 15 2   101.74   -8 LegendNANA
21:00 -7.2 -7.5 98 18 2   101.74   -8 LegendNANA
22:00 -7.7 -8.1 97   0   101.74     LegendNANA
23:00 -7.8 -8.2 97 6 4   101.70   -10 LegendNANA

Notes on Data Quality.

Legend

  • E = Estimated
  • M = Missing
  • NA = Not Available
  • ‡ = Partner data that is not subject to review by the National Climate Archives
Date modified: